When you browse on this site, cookies collect data to enhance your experience and personalize the content and advertising you see.
Visit our Privacy Policy to learn more. By continuing to use the site, you agree to this use of cookies and data.
  • In Österreich
  • Länderverzeichnis
  • Für 7 Tage
  • Wassertemperatur
  • Satellitenkarten
  • Wetterkarte
  • News
  • Widgets
  • user-avatar
    Anmelden

    Stündliche Wetter Santaren

    Heute, 21 März, Donnerstag

    Zeit Temperatur Niederschläge Wind Luftdruck Luftfeuchtigkeit
    00:00 +9°C° 0 mm 1 m/S 766 mmHg 60%
    01:00 +8°C° 0 mm 2 m/S 766 mmHg 60%
    02:00 +8°C° 0 mm 2 m/S 766 mmHg 61%
    03:00 +7°C° 0 mm 2 m/S 766 mmHg 62%
    04:00 +7°C° 0 mm 2 m/S 766 mmHg 64%
    05:00 +7°C° 0 mm 2 m/S 766 mmHg 65%
    06:00 +8°C° 0 mm 3 m/S 766 mmHg 59%
    07:00 +10°C° 0 mm 3 m/S 767 mmHg 54%
    08:00 +12°C° 0 mm 3 m/S 767 mmHg 49%
    09:00 +15°C° 0 mm 4 m/S 767 mmHg 43%
    10:00 +18°C° 0 mm 4 m/S 767 mmHg 37%
    11:00 +20°C° 0 mm 4 m/S 767 mmHg 32%
    12:00 +21°C° 0 mm 4 m/S 766 mmHg 31%
    13:00 +21°C° 0 mm 3 m/S 766 mmHg 30%
    14:00 +22°C° 0 mm 3 m/S 766 mmHg 29%
    15:00 +21°C° 0 mm 3 m/S 765 mmHg 34%
    16:00 +20°C° 0 mm 2 m/S 765 mmHg 39%
    17:00 +18°C° 0 mm 2 m/S 765 mmHg 44%
    18:00 +16°C° 0 mm 2 m/S 765 mmHg 49%
    19:00 +14°C° 0 mm 1 m/S 766 mmHg 54%
    20:00 +12°C° 0 mm 1 m/S 766 mmHg 59%
    21:00 +11°C° 0 mm 1 m/S 766 mmHg 60%
    22:00 +11°C° 0 mm 1 m/S 766 mmHg 62%
    23:00 +9°C° 0 mm 2 m/S 766 mmHg 63%

    Morgen, 22 März, Freitag

    Zeit Temperatur Niederschläge Wind Luftdruck Luftfeuchtigkeit
    00:00 +9°C° 0 mm 2 m/S 766 mmHg 63%
    01:00 +9°C° 0 mm 2 m/S 766 mmHg 63%
    02:00 +8°C° 0 mm 2 m/S 766 mmHg 63%
    03:00 +8°C° 0 mm 2 m/S 766 mmHg 62%
    04:00 +8°C° 0 mm 2 m/S 766 mmHg 62%
    05:00 +7°C° 0 mm 2 m/S 766 mmHg 61%
    06:00 +9°C° 0 mm 3 m/S 766 mmHg 55%
    07:00 +11°C° 0 mm 3 m/S 767 mmHg 48%
    08:00 +13°C° 0 mm 4 m/S 767 mmHg 41%
    09:00 +15°C° 0 mm 4 m/S 767 mmHg 37%
    10:00 +17°C° 0 mm 5 m/S 767 mmHg 32%
    11:00 +20°C° 0 mm 5 m/S 767 mmHg 27%
    12:00 +21°C° 0 mm 5 m/S 766 mmHg 28%
    13:00 +22°C° 0 mm 5 m/S 766 mmHg 28%
    14:00 +22°C° 0 mm 5 m/S 765 mmHg 28%
    15:00 +21°C° 0 mm 4 m/S 765 mmHg 33%
    16:00 +20°C° 0 mm 3 m/S 765 mmHg 37%
    17:00 +19°C° 0 mm 2 m/S 765 mmHg 42%
    18:00 +17°C° 0 mm 2 m/S 765 mmHg 45%
    19:00 +15°C° 0 mm 2 m/S 765 mmHg 48%
    20:00 +13°C° 0 mm 2 m/S 766 mmHg 51%
    21:00 +13°C° 0 mm 2 m/S 766 mmHg 52%
    22:00 +12°C° 0 mm 2 m/S 766 mmHg 54%
    23:00 +10°C° 0 mm 2 m/S 766 mmHg 55%

    übermorgen, 23 März, Samstag

    Zeit Temperatur Niederschläge Wind Luftdruck Luftfeuchtigkeit
    00:00 +10°C° 0 mm 2 m/S 765 mmHg 55%
    01:00 +10°C° 0 mm 3 m/S 765 mmHg 55%
    02:00 +10°C° 0 mm 3 m/S 765 mmHg 55%
    03:00 +10°C° 0 mm 3 m/S 765 mmHg 56%
    04:00 +10°C° 0 mm 3 m/S 764 mmHg 57%
    05:00 +10°C° 0 mm 3 m/S 764 mmHg 58%
    06:00 +11°C° 0 mm 4 m/S 764 mmHg 56%
    07:00 +13°C° 0 mm 4 m/S 764 mmHg 54%
    08:00 +15°C° 0 mm 4 m/S 765 mmHg 52%
    09:00 +17°C° 0 mm 5 m/S 764 mmHg 46%
    10:00 +20°C° 0 mm 5 m/S 764 mmHg 41%
    11:00 +22°C° 0 mm 6 m/S 764 mmHg 36%
    12:00 +23°C° 0 mm 6 m/S 763 mmHg 34%
    13:00 +23°C° 0 mm 5 m/S 762 mmHg 33%
    14:00 +25°C° 0 mm 5 m/S 762 mmHg 32%
    15:00 +23°C° 0 mm 4 m/S 762 mmHg 36%
    16:00 +22°C° 0 mm 3 m/S 761 mmHg 39%
    17:00 +21°C° 0 mm 2 m/S 761 mmHg 43%
    18:00 +20°C° 0 mm 3 m/S 762 mmHg 46%
    19:00 +18°C° 0 mm 3 m/S 762 mmHg 48%
    20:00 +16°C° 0 mm 3 m/S 763 mmHg 50%
    21:00 +16°C° 0 mm 3 m/S 762 mmHg 50%
    22:00 +14°C° 0 mm 3 m/S 762 mmHg 50%
    23:00 +14°C° 0 mm 4 m/S 762 mmHg 50%

    24 März, Sonntag

    Zeit Temperatur Niederschläge Wind Luftdruck Luftfeuchtigkeit
    00:00 +13°C° 0 mm 4 m/S 762 mmHg 52%
    01:00 +13°C° 0 mm 4 m/S 762 mmHg 54%
    02:00 +13°C° 0 mm 4 m/S 762 mmHg 56%
    03:00 +12°C° 0 mm 4 m/S 762 mmHg 58%
    04:00 +12°C° 0 mm 4 m/S 762 mmHg 60%
    05:00 +11°C° 0 mm 4 m/S 762 mmHg 61%
    06:00 +13°C° 0 mm 5 m/S 762 mmHg 57%
    07:00 +15°C° 0 mm 6 m/S 762 mmHg 53%
    08:00 +16°C° 0 mm 7 m/S 763 mmHg 49%
    09:00 +19°C° 0 mm 6 m/S 763 mmHg 45%
    10:00 +21°C° 0 mm 6 m/S 763 mmHg 41%
    11:00 +22°C° 0 mm 6 m/S 763 mmHg 37%
    12:00 +23°C° 0 mm 5 m/S 762 mmHg 35%
    13:00 +25°C° 0 mm 5 m/S 762 mmHg 34%
    14:00 +26°C° 0 mm 4 m/S 761 mmHg 32%
    15:00 +25°C° 0 mm 4 m/S 761 mmHg 36%
    16:00 +24°C° 0 mm 3 m/S 761 mmHg 40%
    17:00 +23°C° 0 mm 2 m/S 761 mmHg 44%
    18:00 +21°C° 0 mm 2 m/S 761 mmHg 45%
    19:00 +19°C° 0 mm 3 m/S 761 mmHg 45%
    20:00 +17°C° 0 mm 3 m/S 762 mmHg 46%
    21:00 +17°C° 0 mm 2 m/S 762 mmHg 50%
    22:00 +16°C° 0 mm 2 m/S 761 mmHg 54%
    23:00 +15°C° 0 mm 1 m/S 761 mmHg 58%

    25 März, Montag

    Zeit Temperatur Niederschläge Wind Luftdruck Luftfeuchtigkeit
    00:00 +14°C° 0 mm 1 m/S 761 mmHg 64%
    01:00 +14°C° 0 mm 1 m/S 761 mmHg 69%
    02:00 +13°C° 0 mm 1 m/S 761 mmHg 75%
    03:00 +13°C° 0 mm 2 m/S 761 mmHg 69%
    04:00 +12°C° 0 mm 3 m/S 761 mmHg 63%
    05:00 +12°C° 0 mm 4 m/S 761 mmHg 57%
    06:00 +13°C° 0 mm 4 m/S 761 mmHg 53%
    07:00 +15°C° 0 mm 4 m/S 761 mmHg 49%
    08:00 +16°C° 0 mm 5 m/S 761 mmHg 44%
    09:00 +19°C° 0 mm 5 m/S 761 mmHg 42%
    10:00 +20°C° 0 mm 5 m/S 761 mmHg 39%
    11:00 +22°C° 0 mm 5 m/S 761 mmHg 37%
    12:00 +23°C° 0 mm 5 m/S 760 mmHg 36%
    13:00 +25°C° 0 mm 5 m/S 760 mmHg 36%
    14:00 +26°C° 0 mm 5 m/S 759 mmHg 35%
    15:00 +25°C° 0 mm 4 m/S 759 mmHg 39%
    16:00 +24°C° 0 mm 3 m/S 759 mmHg 43%
    17:00 +24°C° 0 mm 3 m/S 759 mmHg 47%
    18:00 +21°C° 0 mm 3 m/S 759 mmHg 53%
    19:00 +19°C° 0 mm 2 m/S 760 mmHg 58%
    20:00 +17°C° 0 mm 2 m/S 760 mmHg 64%
    21:00 +16°C° 0 mm 2 m/S 760 mmHg 63%
    22:00 +15°C° 0 mm 2 m/S 760 mmHg 63%
    23:00 +15°C° 0 mm 2 m/S 760 mmHg 63%

    26 März, Dienstag

    Zeit Temperatur Niederschläge Wind Luftdruck Luftfeuchtigkeit
    00:00 +14°C° 0 mm 2 m/S 760 mmHg 62%
    01:00 +14°C° 0 mm 2 m/S 760 mmHg 61%
    02:00 +14°C° 0 mm 2 m/S 759 mmHg 60%
    03:00 +14°C° 0 mm 2 m/S 759 mmHg 58%
    04:00 +12°C° 0 mm 3 m/S 760 mmHg 57%
    05:00 +12°C° 0 mm 3 m/S 760 mmHg 56%
    06:00 +14°C° 0 mm 3 m/S 760 mmHg 53%
    07:00 +15°C° 0 mm 4 m/S 760 mmHg 51%
    08:00 +17°C° 0 mm 5 m/S 760 mmHg 49%
    09:00 +20°C° 0 mm 5 m/S 760 mmHg 45%
    10:00 +22°C° 0 mm 5 m/S 760 mmHg 41%
    11:00 +25°C° 0 mm 5 m/S 760 mmHg 38%
    12:00 +26°C° 0 mm 5 m/S 759 mmHg 36%
    13:00 +27°C° 0 mm 4 m/S 759 mmHg 34%
    14:00 +28°C° 0 mm 4 m/S 758 mmHg 32%
    15:00 +27°C° 0 mm 4 m/S 758 mmHg 35%
    16:00 +25°C° 0 mm 4 m/S 758 mmHg 38%
    17:00 +24°C° 0 mm 3 m/S 758 mmHg 41%
    18:00 +22°C° 0 mm 3 m/S 758 mmHg 41%
    19:00 +20°C° 0 mm 3 m/S 758 mmHg 40%
    20:00 +18°C° 0 mm 3 m/S 759 mmHg 40%
    21:00 +18°C° 0 mm 3 m/S 758 mmHg 40%
    22:00 +18°C° 0 mm 3 m/S 758 mmHg 39%
    23:00 +17°C° 0 mm 3 m/S 758 mmHg 39%
    Mehr zeigen